Location: Exeidioux
(45.6312°N, 1.6819°E)
Time: 07:41:57
(UTC+00:00)

ATLAS CENTAUR R/B - Pass Details

Date: 03 March 2021
Orbit: 475 x 670 km, 64.7° (Epoch: 30 March)

Event Time Altitude Azimuth Distance (km) Brightness Sun altitude
Rises 19:56:29 0° 241° (WSW) 2,520 5.3 -23.9°
Reaches altitude 10° 19:58:47 10° 252° (WSW) 1,642 4.5 -24.3°
Maximum altitude 20:02:01 30° 315° (NW) 887 2.9 -24.8°
Enters shadow 20:03:16 24° 351° (N) 1,037 2.9 -25.1°
